Tracking 35274 objects as of 12-Sep-2026
HD Live streaming from Space Station
objects crossing your sky now

STARLINK-11475

Track STARLINK-11475 now!
10-day predictions
STARLINK-11475 is classified as:


NORAD ID: 62226
Int'l Code: 2024-231J
Launch date: December 5, 2024
Source: United States (US)
Launch site: AIR FORCE WESTERN TEST RANGE (AFWTR)
Your satellite tracking list
Your tracking list is empty




NASA's NSSDC Master Catalog

Two Line Element Set (TLE):
1 62226U 24231J   26254.73141227  .00172278  00000-0  13951-2 0  9994
2 62226  53.1562 263.9846 0002892  80.8223 279.3121 15.69750222102630
Source of the keplerian elements: AFSPC